This demonstration page uses our WeatherBlox Daily Observations layout. Learn more.

Left ArrowRight Arrow

38.89511, -77.03637

Hourly Observations for March 29, 2021

Temp ( °F °C ) Dew Point ( °F °C ) Humidity (%) Winds ( mph kmh ) Pressure ( in mb ) Visibility ( mi km ) Precip ( " mm )
12:52 am 00:52 Mostly Cloudy 50 10 29 -1.7 44 44 WNW 28 44 29.91 1013 10 16.0934 0 0
1:52 am 01:52 Mostly Clear 48 8.9 28 -2.2 46 46 WNW 26 43 29.93 1014 10 16.0934 0 0
2:52 am 02:52 Mostly Clear 47 8.3 28 -2.2 48 48 W 22 35 29.96 1015 10 16.0934 0 0
3:52 am 03:52 Mostly Clear 47 8.3 29 -1.7 50 50 WNW 13 20 29.98 1015 10 16.0934 0 0
4:52 am 04:52 Mostly Clear 47 8.3 28 -2.2 48 48 W 13 20 29.99 1016 10 16.0934 0 0
5:52 am 05:52 Mostly Clear 46 7.8 27 -2.8 47 47 WNW 15 24 30.02 1017 10 16.0934 0 0
6:52 am 06:52 Partly Cloudy 44 6.7 25 -3.9 47 47 WNW 18 30 30.08 1019 10 16.0934 0 0
7:52 am 07:52 Mostly Sunny 44 6.7 24 -4.4 45 45 W 16 26 30.11 1020 10 16.0934 0 0
8:52 am 08:52 Partly Cloudy 46 7.8 25 -3.9 44 44 WNW 20 31 30.16 1021 10 16.0934 0 0
9:52 am 09:52 Partly Cloudy 48 8.9 26 -3.3 42 42 W 16 26 30.19 1023 10 16.0934 0 0
10:52 am 10:52 Mostly Sunny 49 9.4 26 -3.3 41 41 WNW 15 24 30.22 1023 10 16.0934 0 0
11:52 am 11:52 Mostly Sunny 52 11.1 27 -2.8 38 38 W 18 30 30.22 1023 10 16.0934 0 0
12:52 pm 12:52 Sunny 54 12.2 26 -3.3 34 34 W 18 30 30.22 1023 10 16.0934 0 0
1:52 pm 13:52 Sunny 55 12.8 24 -4.4 30 30 W 13 20 30.22 1023 10 16.0934 0 0
2:52 pm 14:52 Sunny 57 13.9 24 -4.4 28 28 W 18 30 30.2 1023 10 16.0934 0 0
3:52 pm 15:52 Mostly Sunny 59 15 23 -5 25 25 W 16 26 30.19 1023 10 16.0934 0 0
4:52 pm 16:52 Mostly Sunny 60 15.6 23 -5 24 24 NW 8 13 30.19 1022 10 16.0934 0 0
5:52 pm 17:52 Sunny 60 15.6 23 -5 24 24 WNW 6 9 30.2 1023 10 16.0934 0 0
6:52 pm 18:52 Sunny 57 13.9 25 -3.9 29 29 N 7 11 30.21 1023 10 16.0934 0 0
7:52 pm 19:52 Clear 53 11.7 26 -3.3 35 35 N 5 7 30.22 1024 10 16.0934 0 0
8:52 pm 20:52 Clear 55 12.8 32 0 42 42 Calm 30.26 1025 10 16.0934 0 0
9:52 pm 21:52 Clear 52 11.1 31 -0.6 45 45 ESE 3 6 30.28 1025 10 16.0934 0 0
10:52 pm 22:52 Hazy 52 11.1 28 -2.2 40 40 Calm 30.29 1026 5 8.0467 0 0
11:52 pm 23:52 Clear 50 10 27 -2.8 41 41 SSE 6 9 30.3 1026 10 16.0934 0 0

Powered by AerisWeather